Orbital Elements at Epoch 2459200.5 (2020-Dec-17.0) TDB
Reference: JPL 20 (heliocentric ecliptic J2000)
Element | Value | Uncertainty (1-sigma) | Units |
e | .1889832441039633 | 5.6423e-08 | |
a | 2.692510501063792 | 1.9768e-08 | au |
q | 2.183671131788769 | 1.5875e-07 | au |
i | 4.523779608003345 | 4.6627e-06 | deg |
node | 69.11926539039061 | 7.6829e-05 | deg |
peri | 259.294759600012 | 7.7944e-05 | deg |
M | 264.6755509685019 | 1.2023e-05 | deg |
tp | 2459627.803390215203 (2022-Feb-17.30339022) | 5.4615e-05 | TDB |
period | 1613.74360974951 4.42 | 1.7772e-05 4.866e-08 | d yr |
n | .223083764871348 | 2.4568e-09 | deg/d |
Q | 3.201349870338816 | 2.3504e-08 | au |
|
| | Orbit Determination Parameters
Additional Information
|